When you browse on this site, cookies collect data to enhance your experience and personalize the content and advertising you see.
Visit our Privacy Policy to learn more. By continuing to use the site, you agree to this use of cookies and data.
  • In Switzerland
  • List of Countries
  • For 7 days
  • Water Temperature
  • Satellite Maps
  • Weather Map
  • Weather Widgets
  • user-avatar
    Login

    Hourly Weather Plakhtyanka

    Today, 21 April, Sunday

    Time Temperature Precipitation Wind Pressure Humidity
    00:00 +9°C° 0 mm 2 mps 752 mmHg 60%
    01:00 +9°C° 0 mm 2 mps 752 mmHg 62%
    02:00 +9°C° 0 mm 2 mps 752 mmHg 64%
    03:00 +8°C° 0 mm 2 mps 752 mmHg 67%
    04:00 +7°C° 0 mm 2 mps 752 mmHg 70%
    05:00 +7°C° 0 mm 2 mps 751 mmHg 72%
    06:00 +8°C° 0 mm 2 mps 751 mmHg 70%
    07:00 +9°C° 0 mm 3 mps 752 mmHg 67%
    08:00 +10°C° 0 mm 3 mps 752 mmHg 64%
    09:00 +11°C° 0.1 mm 3 mps 752 mmHg 58%
    10:00 +13°C° 0.1 mm 4 mps 752 mmHg 52%
    11:00 +14°C° 0.1 mm 4 mps 752 mmHg 47%
    12:00 +14°C° 0.2 mm 5 mps 751 mmHg 47%
    13:00 +14°C° 0.2 mm 5 mps 751 mmHg 48%
    14:00 +14°C° 0.2 mm 5 mps 751 mmHg 48%
    15:00 +14°C° 0.1 mm 5 mps 751 mmHg 48%
    16:00 +13°C° 0.1 mm 5 mps 751 mmHg 49%
    17:00 +13°C° 0.1 mm 5 mps 751 mmHg 50%
    18:00 +12°C° 0 mm 4 mps 751 mmHg 52%
    19:00 +11°C° 0 mm 4 mps 752 mmHg 55%
    20:00 +9°C° 0 mm 3 mps 752 mmHg 58%
    21:00 +9°C° 0 mm 3 mps 752 mmHg 58%
    22:00 +8°C° 0 mm 3 mps 752 mmHg 58%
    23:00 +8°C° 0 mm 3 mps 753 mmHg 58%

    Tomorrow, 22 April, Monday

    Time Temperature Precipitation Wind Pressure Humidity
    00:00 +7°C° 0 mm 3 mps 753 mmHg 59%
    01:00 +7°C° 0 mm 3 mps 753 mmHg 60%
    02:00 +5°C° 0 mm 3 mps 753 mmHg 62%
    03:00 +5°C° 0 mm 3 mps 753 mmHg 62%
    04:00 +5°C° 0 mm 3 mps 754 mmHg 62%
    05:00 +5°C° 0 mm 3 mps 754 mmHg 62%
    06:00 +8°C° 0 mm 3 mps 754 mmHg 58%
    07:00 +9°C° 0 mm 3 mps 755 mmHg 54%
    08:00 +11°C° 0 mm 4 mps 755 mmHg 50%
    09:00 +12°C° 0 mm 4 mps 755 mmHg 44%
    10:00 +13°C° 0 mm 5 mps 755 mmHg 39%
    11:00 +14°C° 0 mm 5 mps 756 mmHg 33%
    12:00 +14°C° 0 mm 5 mps 756 mmHg 34%
    13:00 +14°C° 0 mm 5 mps 756 mmHg 34%
    14:00 +14°C° 0 mm 4 mps 756 mmHg 35%
    15:00 +14°C° 0 mm 4 mps 756 mmHg 37%
    16:00 +14°C° 0 mm 3 mps 756 mmHg 39%
    17:00 +14°C° 0 mm 3 mps 756 mmHg 42%
    18:00 +13°C° 0 mm 3 mps 756 mmHg 44%
    19:00 +12°C° 0 mm 3 mps 756 mmHg 47%
    20:00 +12°C° 0 mm 2 mps 756 mmHg 50%
    21:00 +10°C° 0 mm 2 mps 756 mmHg 52%
    22:00 +9°C° 0 mm 2 mps 757 mmHg 55%
    23:00 +8°C° 0 mm 2 mps 757 mmHg 57%

    Day after tomorrow, 23 April, Tuesday

    Time Temperature Precipitation Wind Pressure Humidity
    00:00 +8°C° 0 mm 2 mps 757 mmHg 58%
    01:00 +7°C° 0 mm 2 mps 757 mmHg 59%
    02:00 +7°C° 0 mm 2 mps 757 mmHg 59%
    03:00 +7°C° 0 mm 2 mps 757 mmHg 59%
    04:00 +7°C° 0 mm 2 mps 757 mmHg 59%
    05:00 +8°C° 0 mm 2 mps 758 mmHg 59%
    06:00 +9°C° 0 mm 2 mps 758 mmHg 56%
    07:00 +10°C° 0 mm 3 mps 758 mmHg 53%
    08:00 +12°C° 0 mm 3 mps 758 mmHg 51%
    09:00 +13°C° 0 mm 4 mps 758 mmHg 46%
    10:00 +14°C° 0 mm 4 mps 758 mmHg 42%
    11:00 +15°C° 0 mm 5 mps 758 mmHg 37%
    12:00 +15°C° 0 mm 5 mps 758 mmHg 38%
    13:00 +15°C° 0 mm 5 mps 758 mmHg 38%
    14:00 +15°C° 0 mm 5 mps 757 mmHg 39%
    15:00 +15°C° 0 mm 4 mps 757 mmHg 41%
    16:00 +15°C° 0 mm 4 mps 757 mmHg 43%
    17:00 +15°C° 0 mm 4 mps 757 mmHg 45%
    18:00 +13°C° 0 mm 3 mps 757 mmHg 48%
    19:00 +12°C° 0 mm 3 mps 757 mmHg 51%
    20:00 +11°C° 0 mm 3 mps 757 mmHg 54%
    21:00 +10°C° 0 mm 3 mps 757 mmHg 56%
    22:00 +10°C° 0 mm 3 mps 757 mmHg 57%
    23:00 +9°C° 0 mm 3 mps 757 mmHg 59%

    24 April, Wednesday

    Time Temperature Precipitation Wind Pressure Humidity
    00:00 +8°C° 0 mm 3 mps 757 mmHg 60%
    01:00 +8°C° 0 mm 3 mps 757 mmHg 60%
    02:00 +8°C° 0 mm 3 mps 758 mmHg 61%
    03:00 +7°C° 0 mm 3 mps 758 mmHg 63%
    04:00 +7°C° 0 mm 3 mps 758 mmHg 65%
    05:00 +7°C° 0 mm 3 mps 758 mmHg 67%
    06:00 +8°C° 0 mm 3 mps 758 mmHg 62%
    07:00 +10°C° 0 mm 3 mps 758 mmHg 58%
    08:00 +12°C° 0 mm 4 mps 758 mmHg 53%
    09:00 +14°C° 0 mm 4 mps 758 mmHg 49%
    10:00 +15°C° 0 mm 5 mps 758 mmHg 44%
    11:00 +16°C° 0 mm 5 mps 758 mmHg 40%
    12:00 +17°C° 0 mm 5 mps 758 mmHg 40%
    13:00 +17°C° 0 mm 5 mps 757 mmHg 40%
    14:00 +19°C° 0 mm 5 mps 757 mmHg 40%
    15:00 +17°C° 0 mm 5 mps 757 mmHg 41%
    16:00 +18°C° 0 mm 4 mps 756 mmHg 43%
    17:00 +18°C° 0 mm 4 mps 756 mmHg 44%
    18:00 +15°C° 0 mm 4 mps 756 mmHg 49%
    19:00 +14°C° 0 mm 3 mps 756 mmHg 55%
    20:00 +12°C° 0 mm 3 mps 756 mmHg 61%
    21:00 +11°C° 0 mm 3 mps 756 mmHg 62%
    22:00 +11°C° 0 mm 3 mps 756 mmHg 63%
    23:00 +10°C° 0 mm 3 mps 757 mmHg 65%

    25 April, Thursday

    Time Temperature Precipitation Wind Pressure Humidity
    00:00 +10°C° 0 mm 3 mps 757 mmHg 66%
    01:00 +9°C° 0 mm 3 mps 756 mmHg 68%
    02:00 +9°C° 0 mm 3 mps 756 mmHg 69%
    03:00 +8°C° 0 mm 3 mps 756 mmHg 70%
    04:00 +8°C° 0 mm 3 mps 756 mmHg 70%
    05:00 +8°C° 0 mm 3 mps 756 mmHg 71%
    06:00 +10°C° 0 mm 4 mps 756 mmHg 64%
    07:00 +11°C° 0 mm 4 mps 756 mmHg 58%
    08:00 +13°C° 0 mm 5 mps 756 mmHg 51%
    09:00 +15°C° 0 mm 5 mps 756 mmHg 48%
    10:00 +16°C° 0 mm 6 mps 756 mmHg 44%
    11:00 +19°C° 0 mm 6 mps 756 mmHg 41%
    12:00 +19°C° 0 mm 6 mps 755 mmHg 40%
    13:00 +20°C° 0 mm 6 mps 755 mmHg 39%
    14:00 +20°C° 0 mm 6 mps 755 mmHg 38%
    15:00 +20°C° 0 mm 6 mps 754 mmHg 40%
    16:00 +20°C° 0 mm 6 mps 754 mmHg 42%
    17:00 +19°C° 0 mm 5 mps 753 mmHg 43%
    18:00 +17°C° 0 mm 5 mps 753 mmHg 48%
    19:00 +15°C° 0 mm 4 mps 753 mmHg 53%
    20:00 +14°C° 0 mm 4 mps 753 mmHg 57%
    21:00 +13°C° 0 mm 4 mps 753 mmHg 58%
    22:00 +13°C° 0 mm 4 mps 753 mmHg 58%
    23:00 +13°C° 0 mm 5 mps 753 mmHg 59%

    26 April, Friday

    Time Temperature Precipitation Wind Pressure Humidity
    00:00 +12°C° 0 mm 4 mps 752 mmHg 58%
    01:00 +12°C° 0 mm 4 mps 752 mmHg 58%
    02:00 +11°C° 0 mm 4 mps 752 mmHg 58%
    03:00 +11°C° 0 mm 4 mps 751 mmHg 58%
    04:00 +11°C° 0 mm 4 mps 751 mmHg 57%
    05:00 +10°C° 0 mm 5 mps 751 mmHg 57%
    06:00 +12°C° 0 mm 5 mps 751 mmHg 54%
    07:00 +13°C° 0 mm 6 mps 751 mmHg 52%
    08:00 +14°C° 0 mm 6 mps 750 mmHg 49%
    09:00 +15°C° 0 mm 6 mps 750 mmHg 46%
    10:00 +17°C° 0 mm 7 mps 750 mmHg 44%
    11:00 +20°C° 0 mm 7 mps 750 mmHg 41%
    12:00 +20°C° 0 mm 7 mps 749 mmHg 41%
    13:00 +21°C° 0 mm 7 mps 749 mmHg 41%
    14:00 +22°C° 0 mm 7 mps 748 mmHg 41%
    15:00 +22°C° 0 mm 7 mps 748 mmHg 43%
    16:00 +21°C° 0 mm 6 mps 747 mmHg 45%
    17:00 +21°C° 0 mm 6 mps 747 mmHg 46%
    18:00 +20°C° 0 mm 6 mps 747 mmHg 50%
    19:00 +19°C° 0 mm 5 mps 747 mmHg 53%
    20:00 +16°C° 0 mm 5 mps 746 mmHg 56%
    21:00 +16°C° 0 mm 5 mps 746 mmHg 56%
    22:00 +16°C° 0 mm 6 mps 746 mmHg 56%
    23:00 +16°C° 0 mm 6 mps 746 mmHg 55%
    Show more